Temperature
0 0 1 1 1 1 1 1 1 1 1 1 1 1 1 1 1 1 1 1 1 2 2 2 2 2 2 2 1 1 1 1 1 2 2 2 2 2 2 2 2 2 2
-0 -0 -0 0 0 0 0 1 1 1 1 1 1 1 1 1 1 1 1 1 1 1 1 1 1 1 1 1 1 1 1 1 1 1 1 1 1 1 1 1 1 1 1
-1 -1 -1 -0 -0 -0 0 0 0 -0 0 0 0 0 0 0 0 0 0 0 0 0 1 1 1 0 0 1 0 0 0 0 0 0 1 1 1 1 1 1 1 1 1
-1 -1 -1 -1 -1 -1 -1 -1 -1 -1 -1 -0 -0 -0 -1 -1 -0 -0 -0 -0 -0 -0 -0 -0 -0 -0 -0 0 -0 -0 -0 -0 -0 -0 -0 -0 -0 -0 -0 0 0 0 0
-2 -2 -2 -2 -2 -2 -1 -1 -1 -1 -1 -1 -1 -1 -1 -1 -1 -1 -1 -1 -1 -1 -1 -1 -1 -1 -1 -1 -1 -1 -1 -1 -1 -1 -1 -1 -1 -1 -1 -0 -1 -1 -1
-3 -2 -2 -2 -2 -2 -2 -2 -2 -2 -2 -2 -2 -2 -2 -2 -2 -2 -2 -2 -2 -2 -2 -2 -1 -1 -1 -1 -1 -1 -1 -1 -1 -2 -2 -2 -1 -1 -1 -1 -1 -2 -2
-3 -3 -3 -3 -3 -3 -3 -3 -3 -3 -3 -2 -2 -2 -2 -2 -3 -3 -3 -3 -3 -3 -2 -2 -2 -2 -2 -2 -2 -2 -2 -2 -2 -2 -2 -2 -2 -2 -2 -2 -2 -2 -2
-4 -4 -4 -4 -4 -4 -3 -3 -3 -3 -3 -3 -3 -3 -3 -3 -3 -3 -4 -4 -4 -3 -3 -3 -3 -3 -3 -3 -3 -3 -3 -3 -3 -3 -2 -2 -2 -2 -2 -2 -2 -3 -3
-5 -4 -4 -4 -4 -4 -4 -4 -4 -4 -4 -4 -4 -4 -4 -4 -4 -4 -4 -4 -4 -4 -4 -4 -3 -3 -3 -4 -4 -4 -3 -3 -3 -3 -3 -3 -3 -3 -3 -3 -3 -3 -4
-5 -5 -5 -5 -5 -5 -5 -5 -5 -5 -5 -5 -5 -5 -5 -4 -4 -4 -5 -5 -5 -5 -4 -4 -4 -4 -4 -4 -4 -4 -4 -4 -4 -4 -4 -3 -4 -3 -3 -4 -4 -4 -4
-6 -6 -6 -6 -6 -6 -6 -6 -6 -6 -6 -5 -5 -5 -5 -5 -5 -5 -5 -5 -5 -5 -5 -5 -5 -4 -5 -5 -5 -5 -5 -4 -4 -4 -4 -4 -4 -4 -4 -4 -4 -4 -4
-6 -6 -6 -6 -6 -6 -6 -6 -6 -6 -6 -6 -6 -6 -6 -6 -6 -6 -6 -6 -6 -6 -6 -5 -5 -5 -5 -5 -5 -5 -5 -5 -5 -5 -5 -5 -5 -5 -5 -5 -5 -5 -5
-7 -7 -7 -7 -7 -7 -7 -7 -7 -7 -7 -7 -7 -7 -7 -6 -6 -6 -6 -6 -6 -6 -6 -6 -6 -6 -6 -6 -5 -6 -6 -6 -5 -5 -5 -5 -5 -5 -6 -5 -5 -5 -5
-8 -8 -8 -8 -8 -8 -8 -8 -8 -8 -7 -7 -8 -7 -7 -7 -7 -7 -7 -7 -7 -7 -7 -6 -6 -6 -6 -6 -6 -6 -6 -6 -6 -6 -6 -6 -6 -6 -6 -6 -6 -6 -6
-8 -8 -8 -8 -8 -8 -8 -8 -8 -8 -8 -8 -8 -8 -8 -8 -7 -7 -7 -7 -7 -7 -7 -7 -7 -7 -7 -7 -7 -7 -7 -7 -7 -7 -7 -7 -7 -7 -7 -7 -7 -7 -7
-9 -9 -9 -9 -9 -9 -9 -9 -9 -9 -9 -9 -9 -9 -8 -8 -8 -8 -8 -8 -8 -8 -7 -7 -7 -7 -7 -7 -7 -7 -7 -7 -7 -7 -8 -7 -7 -7 -8 -7 -7 -7 -7
-9 -9 -9 -9 -9 -10 -10 -10 -9 -9 -9 -9 -9 -9 -9 -9 -9 -8 -8 -8 -8 -8 -8 -8 -8 -8 -8 -8 -8 -8 -8 -8 -8 -8 -8 -8 -8 -8 -8 -8 -8 -8 -8
-10 -10 -10 -10 -10 -10 -10 -10 -10 -10 -10 -10 -10 -10 -10 -9 -9 -9 -9 -9 -9 -9 -8 -8 -8 -8 -8 -8 -8 -8 -8 -8 -8 -8 -8 -9 -9 -9 -9 -9 -9 -9 -9
-10 -10 -11 -11 -11 -11 -11 -11 -11 -11 -11 -11 -10 -10 -10 -10 -10 -10 -10 -9 -9 -9 -9 -9 -9 -9 -9 -9 -9 -9 -9 -9 -9 -9 -9 -9 -9 -9 -9 -9 -9 -9 -9
-11 -11 -11 -11 -11 -11 -11 -11 -11 -11 -11 -11 -11 -11 -10 -10 -10 -10 -10 -10 -10 -10 -10 -9 -9 -10 -9 -9 -9 -9 -9 -9 -9 -9 -9 -9 -10 -10 -10 -10 -10 -10 -10
-11 -11 -11 -11 -11 -11 -11 -12 -12 -12 -12 -11 -11 -11 -11 -11 -11 -10 -10 -10 -10 -10 -10 -10 -10 -10 -10 -10 -10 -10 -10 -9 -10 -10 -10 -10 -10 -10 -10 -10 -10 -10 -10
-11 -11 -11 -11 -11 -12 -12 -12 -12 -12 -12 -12 -12 -11 -11 -11 -11 -11 -11 -11 -11 -10 -10 -11 -11 -10 -10 -10 -10 -10 -10 -10 -10 -10 -10 -10 -10 -11 -11 -11 -11 -11 -11
-11 -12 -12 -12 -12 -12 -12 -12 -12 -12 -12 -12 -12 -12 -12 -12 -12 -11 -11 -11 -11 -11 -11 -11 -11 -11 -11 -11 -11 -11 -11 -10 -10 -11 -11 -11 -11 -11 -11 -11 -11 -11 -11
-12 -12 -12 -12 -12 -12 -13 -13 -13 -13 -13 -12 -12 -12 -12 -12 -12 -12 -12 -12 -12 -11 -11 -12 -11 -11 -11 -11 -11 -11 -11 -11 -11 -11 -11 -11 -11 -11 -11 -11 -12 -12 -12
-12 -12 -12 -12 -13 -13 -13 -13 -13 -13 -13 -13 -13 -13 -13 -13 -12 -12 -12 -12 -12 -12 -12 -12 -12 -12 -12 -12 -12 -12 -12 -12 -12 -12 -12 -12 -12 -12 -12 -12 -12 -12 -12
-12 -13 -13 -13 -13 -13 -13 -13 -13 -13 -13 -13 -13 -13 -13 -13 -13 -13 -13 -13 -13 -12 -12 -12 -12 -12 -12 -12 -12 -12 -12 -12 -12 -12 -12 -12 -12 -12 -12 -13 -13 -13 -13
Wind_Speed
3 4 3 3 3 3 4 4 4 4 4 4 4 4 5 5 5 4 4 5 5 5 4 5 5 4 4 3 3 3 3 3 4 2 1 1 2 2 3 4 5 5 6
4 4 4 3 3 3 4 4 4 4 5 5 5 4 4 5 5 6 6 6 6 6 6 5 5 4 5 4 4 4 4 4 4 4 2 2 2 3 2 3 3 5 6
3 3 3 3 4 4 4 4 4 5 4 4 4 5 5 5 5 6 6 6 6 7 6 7 6 5 6 4 5 5 4 3 3 4 3 2 1 1 1 2 2 3 4
3 3 3 4 4 4 4 4 4 4 5 5 5 5 5 5 5 6 6 6 6 6 6 7 7 7 7 6 6 6 4 4 3 4 3 2 2 1 1 1 2 2 3
3 3 4 4 4 3 3 3 3 4 4 4 5 5 5 5 5 6 6 6 6 6 6 6 7 9 9 8 6 6 6 5 4 4 4 3 3 3 3 2 3 2 3
3 4 4 4 3 3 3 3 3 3 4 4 5 5 5 5 7 9 7 6 6 6 6 6 6 8 9 11 11 10 9 7 7 5 5 6 6 5 4 3 3 2 3
3 4 4 3 3 3 3 3 3 3 3 4 4 5 6 7 9 9 10 7 6 6 7 6 6 6 8 6 8 10 10 12 11 8 7 8 7 7 6 5 5 5 4
4 4 3 3 3 3 3 3 3 3 3 3 4 4 5 6 8 9 10 7 7 7 7 7 7 6 7 7 7 7 7 8 9 8 8 8 7 6 7 6 5 3 2
4 4 4 3 3 3 3 3 3 3 3 3 4 4 5 6 8 8 9 5 6 7 7 7 7 7 10 10 8 8 7 7 9 10 10 10 10 10 8 3 3 3 4
4 4 4 3 3 3 4 3 2 2 3 3 4 4 5 5 7 8 8 5 6 6 6 7 9 10 10 10 8 8 8 7 4 5 6 7 6 7 9 7 6 6 3
5 4 4 3 4 3 3 2 2 2 2 3 4 4 5 6 7 8 8 5 5 5 5 5 6 10 11 11 10 8 9 6 5 5 4 4 4 4 5 6 6 6 5
4 4 4 4 3 3 2 2 2 2 3 3 3 4 4 4 6 7 9 9 7 5 5 5 5 9 10 10 9 9 9 6 3 3 4 4 4 4 4 4 5 6 6
4 4 4 4 3 3 2 2 2 2 3 3 3 4 4 3 4 8 9 10 10 6 5 8 8 9 8 8 9 8 6 4 4 4 5 4 3 4 3 3 3 3 3
4 4 3 3 3 2 2 2 2 3 3 3 4 4 4 3 3 4 4 5 7 6 5 6 8 8 6 5 5 5 4 4 5 5 4 3 2 2 3 3 3 3 2
3 3 3 3 3 2 2 2 3 3 4 4 4 4 4 4 5 6 5 4 4 4 3 2 2 2 2 2 2 2 3 3 4 3 3 3 3 3 3 3 3 3 4
3 3 2 2 2 2 2 3 4 4 5 6 6 5 5 6 7 7 7 6 5 4 3 2 3 3 3 3 3 3 2 3 3 4 4 4 4 4 3 3 3 4 4
2 3 2 2 2 2 2 2 3 4 5 5 5 6 6 6 6 6 5 5 4 3 2 2 3 3 3 3 3 3 3 3 3 4 4 4 4 4 4 3 3 3 3
2 3 2 2 2 2 2 2 2 3 3 4 5 6 6 6 5 4 4 2 1 1 1 2 2 2 3 3 3 3 3 3 3 3 4 4 4 4 4 3 4 4 3
2 2 2 2 2 2 2 2 2 2 3 3 3 5 6 5 4 4 3 1 1 1 1 2 2 2 2 3 3 3 3 3 3 3 3 3 3 3 3 4 4 5 4
2 3 3 1 1 2 2 2 2 2 2 3 3 4 4 3 2 2 2 1 1 2 2 2 2 2 2 2 2 3 3 3 3 3 3 3 3 3 4 4 4 4 4
2 2 3 2 1 2 1 2 2 2 2 2 3 4 5 2 1 2 2 1 1 2 2 2 2 2 2 2 2 2 3 3 3 3 3 3 3 3 3 3 3 3 3
2 1 1 1 2 2 1 1 2 2 2 2 3 3 5 2 2 2 2 2 2 2 2 1 1 2 2 2 2 2 3 3 3 3 3 3 3 3 3 3 3 3 3
1 1 2 1 1 2 2 2 2 2 2 2 2 2 2 2 2 2 2 2 2 2 2 1 1 1 2 2 2 3 3 4 4 4 4 3 3 3 3 4 4 4 3
1 1 1 1 1 1 1 2 2 2 2 2 2 2 2 2 2 2 2 2 2 2 2 2 2 2 2 2 2 3 4 4 5 5 5 4 4 3 3 3 4 4 4
1 1 1 1 1 1 1 2 2 2 2 2 2 2 2 2 2 2 2 2 2 2 3 3 2 2 2 3 3 3 4 4 4 4 5 5 4 4 4 4 4 4 4
0 1 1 1 1 1 1 2 2 2 2 2 2 2 2 2 2 2 2 2 2 2 3 3 3 4 4 4 4 4 4 4 4 4 5 5 4 4 4 3 4 4 4
Wind_Direction
268 259 248 235 214 210 216 216 213 215 208 200 203 200 198 199 198 198 207 205 211 221 218 213 221 207 207 212 206 199 200 192 223 257 242 244 217 228 243 227 224 222 230
270 259 247 247 226 219 230 226 213 207 212 211 206 203 208 210 206 205 213 213 211 216 217 212 221 215 208 206 203 205 207 199 199 233 251 228 228 225 233 235 227 225 229
270 258 249 245 234 229 230 228 214 205 209 212 205 209 213 216 215 215 213 215 214 216 216 215 217 210 213 209 209 209 209 211 199 211 242 239 235 214 238 268 247 231 237
266 257 253 250 244 239 234 224 215 207 212 213 215 216 218 219 220 221 220 219 217 220 220 220 215 212 214 207 212 209 201 200 199 204 228 235 226 212 187 221 259 238 251
279 270 266 265 258 247 238 231 219 215 223 218 218 221 221 224 225 222 219 220 217 218 221 223 223 223 225 220 218 206 197 201 204 210 224 233 229 211 216 212 238 263 264
283 276 279 274 263 250 244 234 225 222 224 220 221 224 229 236 240 238 231 224 223 220 224 228 229 229 232 234 232 227 216 209 209 215 227 228 230 224 215 213 216 251 263
288 285 282 273 263 256 249 233 230 228 229 229 226 227 230 237 244 243 239 231 225 225 223 228 235 234 237 228 233 237 235 234 226 217 224 228 226 219 208 215 218 230 250
294 289 285 276 269 265 251 245 242 241 238 239 242 238 241 246 248 247 244 234 229 230 228 227 228 228 231 225 223 230 235 237 234 228 223 228 229 218 209 212 216 233 269
300 294 288 273 268 265 258 254 245 240 246 247 249 243 244 252 252 252 249 237 232 231 232 232 229 229 240 235 225 227 237 242 245 243 240 238 235 228 211 192 195 208 246
298 294 292 285 269 262 260 261 257 246 246 251 260 254 249 251 254 252 250 241 240 240 234 234 238 238 243 237 225 221 232 235 227 243 246 242 230 221 216 205 203 211 230
306 304 301 292 278 269 264 260 255 254 250 250 260 264 254 252 257 252 248 240 240 243 242 237 236 242 244 239 237 227 236 234 216 221 224 217 205 207 212 210 209 212 222
313 309 303 296 286 273 256 260 253 238 240 250 257 266 262 260 258 256 250 247 245 242 246 243 242 247 244 242 241 241 242 234 207 207 215 217 212 217 217 215 211 215 222
317 310 308 307 298 284 255 252 257 240 235 245 249 258 267 262 258 260 256 254 253 247 248 248 252 250 246 240 240 243 232 210 201 211 223 226 222 216 209 206 198 199 218
316 315 318 318 308 292 269 252 244 238 239 245 247 258 268 264 256 256 252 254 254 251 250 251 253 250 242 242 244 235 222 212 207 213 218 217 201 198 208 208 214 210 234
316 317 321 321 318 313 297 265 264 249 242 246 246 247 253 262 262 265 262 253 242 239 234 229 236 233 226 231 236 235 225 214 212 204 201 201 206 211 219 215 217 222 227
315 320 318 317 319 317 313 318 312 306 298 288 285 277 270 269 272 269 268 268 267 254 232 226 227 220 223 224 226 235 225 216 215 207 206 205 210 213 219 222 219 219 223
290 302 306 314 319 316 312 308 313 322 324 317 307 298 293 291 286 281 279 275 266 249 225 224 224 224 228 229 227 224 228 220 210 208 209 211 210 211 210 215 215 220 225
292 298 305 297 298 299 299 300 303 310 317 320 320 316 313 310 312 311 310 310 286 256 219 221 226 232 231 230 226 223 225 216 204 204 206 206 206 206 208 215 214 216 223
288 287 285 286 287 290 295 300 302 303 306 312 320 318 324 327 328 329 331 297 252 258 255 244 234 229 231 227 224 221 219 220 209 202 204 205 206 204 212 218 217 222 222
283 297 307 299 299 304 306 308 309 311 312 315 314 314 321 330 335 335 334 329 279 271 270 258 250 235 233 228 225 220 218 218 209 204 205 208 208 206 210 214 214 219 221
297 300 316 317 300 291 296 302 305 310 314 316 315 323 337 343 334 335 333 319 290 273 273 273 262 242 231 230 222 218 214 215 209 203 203 205 203 208 211 207 212 218 211
300 306 306 300 304 306 309 308 313 312 312 312 319 331 341 355 343 334 333 327 319 310 295 283 282 270 245 226 212 214 216 216 212 204 201 202 202 201 202 202 207 207 201
297 300 305 305 311 317 330 327 320 316 316 317 324 333 340 343 339 330 325 325 326 324 319 304 291 296 293 271 235 213 217 224 217 205 197 197 199 201 198 201 202 199 203
286 285 293 304 312 308 309 314 316 317 318 322 324 325 328 327 324 322 321 323 328 326 320 311 289 283 291 294 278 250 234 231 221 207 193 190 196 198 198 201 202 199 201
298 293 291 286 287 291 299 308 310 311 313 313 312 316 321 322 319 318 317 321 326 325 321 313 298 292 290 282 273 256 251 253 241 206 182 180 186 192 195 200 198 197 201
295 287 290 290 285 284 288 293 297 302 303 306 306 306 308 307 305 306 310 314 315 317 315 312 304 299 297 289 277 271 272 268 249 222 185 175 182 192 191 193 191 192 192
Height
1465 1466 1467 1467 1468 1469 1471 1472 1474 1476 1477 1479 1481 1482 1484 1486 1488 1490 1491 1493 1495 1497 1498 1500 1502 1504 1505 1507 1508 1509 1511 1512 1511 1512 1514 1515 1516 1517 1518 1519 1519 1520 1520
1461 1461 1462 1463 1464 1464 1466 1467 1469 1470 1472 1474 1475 1477 1478 1480 1482 1484 1486 1488 1489 1491 1493 1494 1496 1498 1500 1501 1503 1504 1505 1506 1507 1507 1508 1510 1511 1512 1513 1513 1514 1515 1516
1457 1457 1457 1458 1459 1459 1461 1462 1464 1465 1466 1468 1470 1471 1473 1474 1476 1478 1480 1482 1483 1485 1487 1488 1490 1492 1494 1495 1497 1498 1500 1501 1501 1502 1502 1504 1505 1507 1507 1508 1509 1510 1510
1452 1452 1452 1453 1454 1455 1456 1457 1458 1460 1461 1463 1464 1466 1467 1469 1470 1472 1474 1476 1477 1479 1481 1482 1484 1485 1487 1489 1491 1492 1494 1495 1496 1497 1497 1498 1500 1501 1502 1502 1503 1504 1504
1448 1448 1449 1449 1450 1450 1451 1452 1453 1455 1456 1458 1459 1460 1462 1463 1464 1466 1468 1469 1471 1472 1474 1476 1477 1479 1481 1483 1485 1486 1488 1489 1490 1491 1491 1492 1494 1495 1496 1496 1497 1498 1498
1444 1444 1445 1445 1446 1446 1447 1448 1449 1450 1451 1453 1454 1455 1456 1457 1459 1461 1462 1463 1465 1466 1467 1469 1471 1473 1474 1476 1478 1480 1482 1483 1484 1485 1485 1486 1487 1489 1490 1491 1491 1491 1491
1441 1441 1441 1441 1441 1442 1443 1443 1444 1445 1446 1447 1448 1450 1450 1452 1454 1455 1456 1458 1459 1460 1461 1463 1465 1466 1468 1470 1471 1473 1475 1477 1478 1479 1479 1480 1481 1483 1484 1485 1485 1486 1486
1438 1437 1437 1437 1437 1438 1438 1438 1439 1440 1441 1442 1443 1444 1445 1446 1448 1449 1451 1452 1453 1454 1455 1457 1458 1460 1462 1464 1465 1466 1468 1469 1471 1472 1473 1474 1476 1477 1478 1479 1479 1480 1480
1434 1434 1434 1433 1433 1433 1433 1434 1435 1435 1436 1437 1438 1438 1439 1440 1442 1443 1445 1446 1446 1447 1449 1451 1452 1454 1456 1458 1459 1459 1460 1462 1465 1466 1467 1468 1469 1471 1472 1473 1473 1473 1472
1431 1431 1430 1430 1429 1429 1429 1429 1430 1431 1431 1432 1432 1433 1434 1435 1436 1438 1439 1440 1440 1442 1443 1445 1446 1448 1450 1451 1452 1452 1453 1455 1457 1459 1460 1461 1462 1463 1465 1466 1466 1467 1466
1428 1427 1426 1426 1425 1425 1425 1425 1426 1426 1427 1427 1427 1428 1429 1429 1431 1432 1433 1434 1435 1436 1437 1439 1440 1442 1444 1445 1446 1447 1447 1449 1450 1452 1453 1454 1455 1456 1457 1458 1460 1460 1460
1424 1423 1422 1421 1421 1421 1421 1421 1421 1422 1422 1422 1423 1423 1424 1425 1426 1426 1428 1429 1430 1431 1432 1433 1435 1436 1438 1439 1440 1441 1443 1444 1444 1445 1446 1447 1448 1449 1450 1451 1453 1454 1454
1421 1420 1418 1417 1417 1417 1417 1417 1417 1418 1418 1418 1418 1418 1419 1420 1420 1422 1423 1424 1425 1426 1427 1428 1429 1431 1432 1433 1434 1435 1437 1437 1438 1438 1439 1441 1442 1443 1444 1445 1446 1447 1447
1418 1416 1415 1414 1412 1412 1413 1413 1413 1413 1414 1414 1414 1414 1414 1415 1416 1417 1418 1419 1420 1421 1422 1423 1424 1425 1426 1427 1429 1430 1431 1431 1432 1433 1434 1435 1436 1437 1438 1438 1439 1440 1440
1415 1414 1412 1411 1410 1409 1410 1410 1410 1410 1410 1410 1410 1410 1410 1410 1411 1412 1413 1413 1414 1415 1416 1417 1418 1420 1420 1421 1423 1424 1425 1426 1427 1427 1428 1429 1430 1431 1432 1433 1433 1434 1434
1412 1411 1410 1409 1408 1408 1407 1407 1407 1407 1407 1407 1407 1407 1406 1407 1407 1408 1408 1409 1410 1411 1412 1412 1413 1414 1415 1416 1417 1418 1420 1421 1422 1422 1423 1424 1425 1425 1426 1427 1428 1428 1429
1410 1409 1408 1407 1406 1405 1405 1404 1403 1404 1404 1404 1403 1403 1403 1403 1404 1404 1404 1405 1406 1407 1407 1407 1408 1409 1411 1412 1413 1414 1415 1416 1417 1417 1418 1419 1419 1420 1421 1421 1422 1423 1423
1408 1407 1406 1405 1404 1403 1403 1402 1401 1400 1400 1399 1400 1400 1400 1400 1400 1400 1401 1401 1402 1403 1403 1404 1404 1405 1406 1407 1408 1409 1410 1411 1412 1412 1413 1414 1415 1415 1416 1416 1417 1418 1418
1406 1405 1404 1403 1402 1402 1401 1400 1399 1398 1397 1397 1397 1397 1398 1398 1398 1398 1398 1398 1398 1399 1400 1400 1401 1402 1402 1403 1404 1405 1406 1406 1407 1408 1409 1410 1410 1411 1412 1412 1413 1413 1414
1404 1403 1402 1401 1400 1399 1398 1398 1397 1396 1395 1395 1395 1395 1395 1395 1394 1395 1395 1395 1395 1396 1397 1397 1398 1398 1399 1399 1400 1401 1401 1402 1402 1403 1404 1405 1406 1407 1408 1408 1409 1409 1409
1402 1401 1400 1399 1398 1397 1396 1395 1395 1394 1393 1393 1393 1393 1393 1392 1392 1392 1393 1393 1393 1394 1394 1394 1394 1395 1395 1395 1396 1396 1397 1398 1399 1399 1400 1401 1402 1403 1404 1404 1405 1405 1405
1400 1399 1398 1397 1396 1395 1394 1394 1393 1392 1391 1391 1390 1390 1391 1391 1390 1390 1390 1391 1391 1391 1391 1391 1391 1391 1392 1392 1392 1393 1393 1394 1395 1396 1396 1397 1398 1399 1400 1400 1401 1401 1401
1398 1397 1396 1395 1394 1393 1393 1392 1391 1390 1390 1389 1389 1389 1389 1388 1388 1388 1388 1388 1388 1389 1389 1389 1388 1388 1389 1389 1389 1390 1390 1391 1392 1392 1393 1393 1394 1395 1395 1396 1396 1397 1397
1396 1395 1394 1393 1392 1392 1391 1390 1389 1388 1388 1388 1387 1387 1387 1386 1386 1386 1386 1386 1386 1386 1386 1386 1386 1386 1386 1386 1386 1387 1388 1388 1388 1389 1390 1390 1390 1391 1391 1392 1392 1393 1393
1394 1393 1392 1391 1390 1390 1389 1388 1387 1387 1386 1386 1386 1385 1385 1384 1384 1384 1384 1384 1384 1384 1384 1384 1383 1384 1384 1383 1384 1384 1384 1384 1385 1385 1386 1386 1386 1387 1387 1388 1388 1389 1389
1392 1391 1390 1389 1388 1388 1387 1386 1386 1385 1385 1384 1384 1383 1383 1382 1382 1382 1382 1381 1381 1381 1381 1381 1381 1381 1381 1381 1381 1381 1381 1381 1382 1382 1382 1382 1382 1383 1383 1384 1384 1385 1386